Time,TemperatureF,DewpointF,PressureIn,WindDirection,WindDirectionDegrees,WindSpeedMPH,WindSpeedGustMPH,Humidity,HourlyPrecipIn,Conditions,Clouds,dailyrainin,SoftwareType,DateUTC
2013-05-20 00:13:00,55.4,54.0,30.17,North,353,0.0,0.0,96,0.00,,,0.00,weatherlink.com 1.10,2013-05-20 04:13:00,
2013-05-20 00:28:00,55.4,54.0,30.17,North,353,0.0,1.0,96,0.00,,,0.00,weatherlink.com 1.10,2013-05-20 04:28:00,
2013-05-20 00:43:00,55.3,54.0,30.17,SW,226,0.0,4.0,96,0.00,,,0.00,weatherlink.com 1.10,2013-05-20 04:43:00,
2013-05-20 00:58:00,55.4,54.0,30.16,South,185,0.0,1.0,96,0.00,,,0.00,weatherlink.com 1.10,2013-05-20 04:58:00,
2013-05-20 01:13:00,55.4,54.0,30.15,SSW,194,1.0,3.0,96,0.00,,,0.00,weatherlink.com 1.10,2013-05-20 05:13:00,
2013-05-20 01:28:00,55.3,54.0,30.13,SSE,156,0.0,5.0,96,0.00,,,0.00,weatherlink.com 1.10,2013-05-20 05:28:00,
2013-05-20 01:43:00,55.3,54.0,30.13,SSW,205,4.0,4.0,96,0.01,,,0.01,weatherlink.com 1.10,2013-05-20 05:43:00,
2013-05-20 01:58:00,55.3,54.0,30.12,South,174,0.0,3.0,96,0.02,,,0.02,weatherlink.com 1.10,2013-05-20 05:58:00,
2013-05-20 02:13:00,55.3,54.0,30.12,SE,138,0.0,1.0,96,0.02,,,0.02,weatherlink.com 1.10,2013-05-20 06:13:00,
2013-05-20 02:28:00,55.3,54.0,30.11,SSW,198,2.0,3.0,96,0.02,,,0.02,weatherlink.com 1.10,2013-05-20 06:28:00,
2013-05-20 02:44:00,55.3,54.0,30.11,SSW,208,0.0,2.0,96,0.01,,,0.02,weatherlink.com 1.10,2013-05-20 06:44:00,
2013-05-20 02:59:00,55.3,54.0,30.10,SSW,203,0.0,4.0,96,0.00,,,0.02,weatherlink.com 1.10,2013-05-20 06:59:00,
2013-05-20 03:14:00,55.3,54.0,30.09,SSE,156,0.0,5.0,96,0.00,,,0.02,weatherlink.com 1.10,2013-05-20 07:14:00,
2013-05-20 03:29:00,55.4,55.0,30.09,SE,124,1.0,5.0,97,0.00,,,0.02,weatherlink.com 1.10,2013-05-20 07:29:00,
2013-05-20 03:44:00,55.4,54.0,30.09,SSE,156,0.0,2.0,96,0.00,,,0.02,weatherlink.com 1.10,2013-05-20 07:44:00,
2013-05-20 03:59:00,55.4,54.0,30.08,West,280,1.0,3.0,96,0.00,,,0.02,weatherlink.com 1.10,2013-05-20 07:59:00,
2013-05-20 04:14:00,55.4,55.0,30.06,South,188,0.0,3.0,97,0.00,,,0.02,weatherlink.com 1.10,2013-05-20 08:14:00,
2013-05-20 04:29:00,55.4,55.0,30.05,SSW,205,0.0,4.0,97,0.00,,,0.02,weatherlink.com 1.10,2013-05-20 08:29:00,
2013-05-20 04:44:00,55.5,55.0,30.05,SSE,155,2.0,2.0,97,0.00,,,0.02,weatherlink.com 1.10,2013-05-20 08:44:00,
2013-05-20 04:59:00,55.5,55.0,30.04,SSW,207,0.0,1.0,97,0.00,,,0.02,weatherlink.com 1.10,2013-05-20 08:59:00,
2013-05-20 05:14:00,55.5,55.0,30.05,SSE,166,0.0,1.0,97,0.00,,,0.02,weatherlink.com 1.10,2013-05-20 09:14:00,
2013-05-20 05:29:00,55.5,55.0,30.04,SSE,166,0.0,1.0,97,0.00,,,0.02,weatherlink.com 1.10,2013-05-20 09:29:00,
2013-05-20 05:44:00,55.5,55.0,30.04,SSW,212,0.0,2.0,97,0.00,,,0.02,weatherlink.com 1.10,2013-05-20 09:44:00,
2013-05-20 05:59:00,55.6,55.0,30.04,NNW,337,0.0,1.0,97,0.00,,,0.02,weatherlink.com 1.10,2013-05-20 09:59:00,
2013-05-20 06:13:00,55.7,55.0,30.04,NNW,337,0.0,1.0,97,0.00,,,0.02,weatherlink.com 1.10,2013-05-20 10:13:00,
2013-05-20 06:28:00,55.9,55.0,30.04,South,170,0.0,2.0,97,0.00,,,0.02,weatherlink.com 1.10,2013-05-20 10:28:00,
2013-05-20 06:43:00,56.1,55.0,30.04,SSE,164,0.0,1.0,97,0.00,,,0.02,weatherlink.com 1.10,2013-05-20 10:43:00,
2013-05-20 06:58:00,56.4,56.0,30.04,South,173,0.0,1.0,97,0.00,,,0.02,weatherlink.com 1.10,2013-05-20 10:58:00,
2013-05-20 07:13:00,56.6,56.0,30.04,SW,227,0.0,1.0,96,0.00,,,0.02,weatherlink.com 1.10,2013-05-20 11:13:00,
2013-05-20 07:28:00,57.0,56.0,30.05,North,354,1.0,1.0,96,0.00,,,0.02,weatherlink.com 1.10,2013-05-20 11:28:00,
2013-05-20 07:43:00,57.2,56.0,30.04,North,357,0.0,1.0,96,0.00,,,0.02,weatherlink.com 1.10,2013-05-20 11:43:00,
2013-05-20 07:58:00,57.9,57.0,30.04,North,357,0.0,1.0,96,0.00,,,0.02,weatherlink.com 1.10,2013-05-20 11:58:00,
2013-05-20 08:13:00,58.7,57.0,30.04,West,265,1.0,3.0,95,0.00,,,0.02,weatherlink.com 1.10,2013-05-20 12:13:00,
2013-05-20 08:29:00,60.1,59.0,30.04,SW,217,2.0,4.0,95,0.00,,,0.02,weatherlink.com 1.10,2013-05-20 12:29:00,
2013-05-20 08:44:00,61.4,59.0,30.04,ENE,57,1.0,3.0,93,0.00,,,0.02,weatherlink.com 1.10,2013-05-20 12:44:00,
2013-05-20 08:59:00,62.3,59.0,30.04,South,186,0.0,4.0,90,0.00,,,0.02,weatherlink.com 1.10,2013-05-20 12:59:00,
2013-05-20 09:14:00,63.3,60.0,30.04,NE,50,0.0,3.0,88,0.00,,,0.02,weatherlink.com 1.10,2013-05-20 13:14:00,
2013-05-20 09:29:00,64.0,60.0,30.04,SSW,203,0.0,5.0,86,0.00,,,0.02,weatherlink.com 1.10,2013-05-20 13:29:00,
2013-05-20 09:44:00,65.0,60.0,30.04,South,184,2.0,4.0,84,0.00,,,0.02,weatherlink.com 1.10,2013-05-20 13:44:00,
2013-05-20 09:59:00,64.9,60.0,30.04,West,279,1.0,2.0,84,0.00,,,0.02,weatherlink.com 1.10,2013-05-20 13:59:00,
2013-05-20 10:14:00,64.9,60.0,30.04,NW,311,0.0,3.0,84,0.00,,,0.02,weatherlink.com 1.10,2013-05-20 14:14:00,
2013-05-20 10:29:00,64.7,61.0,30.03,SSW,195,1.0,2.0,87,0.00,,,0.02,weatherlink.com 1.10,2013-05-20 14:29:00,
2013-05-20 10:44:00,64.7,61.0,30.04,West,271,0.0,2.0,88,0.00,,,0.02,weatherlink.com 1.10,2013-05-20 14:44:00,
2013-05-20 10:59:00,65.8,62.0,30.03,SW,221,1.0,1.0,86,0.00,,,0.02,weatherlink.com 1.10,2013-05-20 14:59:00,
2013-05-20 11:14:00,66.6,62.0,30.02,SSE,159,0.0,1.0,85,0.00,,,0.02,weatherlink.com 1.10,2013-05-20 15:14:00,
2013-05-20 11:29:00,67.6,62.0,30.01,South,189,2.0,4.0,82,0.00,,,0.02,weatherlink.com 1.10,2013-05-20 15:29:00,
2013-05-20 11:44:00,68.0,62.0,30.00,South,179,2.0,5.0,81,0.00,,,0.02,weatherlink.com 1.10,2013-05-20 15:44:00,
2013-05-20 11:59:00,68.9,62.0,30.00,WNW,299,1.0,4.0,79,0.00,,,0.02,weatherlink.com 1.10,2013-05-20 15:59:00,
2013-05-20 12:14:00,69.8,63.0,30.00,SW,214,3.0,5.0,78,0.00,,,0.02,weatherlink.com 1.10,2013-05-20 16:14:00,
2013-05-20 12:29:00,70.7,64.0,29.99,ENE,64,1.0,2.0,79,0.00,,,0.02,weatherlink.com 1.10,2013-05-20 16:29:00,
2013-05-20 12:44:00,70.5,62.0,29.99,SSW,207,2.0,4.0,75,0.00,,,0.02,weatherlink.com 1.10,2013-05-20 16:44:00,
2013-05-20 12:59:00,70.9,63.0,29.99,South,186,0.0,2.0,76,0.00,,,0.02,weatherlink.com 1.10,2013-05-20 16:59:00,
2013-05-20 13:14:00,71.4,63.0,29.99,West,263,2.0,3.0,74,0.00,,,0.02,weatherlink.com 1.10,2013-05-20 17:14:00,
2013-05-20 13:29:00,70.9,63.0,29.99,SE,125,0.0,2.0,76,0.00,,,0.02,weatherlink.com 1.10,2013-05-20 17:29:00,
2013-05-20 13:44:00,71.1,63.0,29.99,West,272,0.0,4.0,76,0.00,,,0.02,weatherlink.com 1.10,2013-05-20 17:44:00,
2013-05-20 13:59:00,71.9,63.0,29.99,NNW,331,1.0,2.0,74,0.00,,,0.02,weatherlink.com 1.10,2013-05-20 17:59:00,
2013-05-20 14:14:00,72.2,63.0,29.98,SSE,160,2.0,4.0,73,0.00,,,0.02,weatherlink.com 1.10,2013-05-20 18:14:00,
2013-05-20 14:29:00,71.8,63.0,29.98,West,277,0.0,6.0,73,0.00,,,0.02,weatherlink.com 1.10,2013-05-20 18:29:00,
2013-05-20 14:44:00,71.6,63.0,29.98,SSE,166,0.0,4.0,74,0.00,,,0.02,weatherlink.com 1.10,2013-05-20 18:44:00,
2013-05-20 14:59:00,72.4,63.0,29.98,North,353,0.0,3.0,73,0.00,,,0.02,weatherlink.com 1.10,2013-05-20 18:59:00,
2013-05-20 15:14:00,72.4,63.0,29.97,SW,232,1.0,4.0,71,0.00,,,0.02,weatherlink.com 1.10,2013-05-20 19:14:00,
2013-05-20 15:30:00,72.6,63.0,29.97,NNW,347,2.0,2.0,73,0.00,,,0.02,weatherlink.com 1.10,2013-05-20 19:30:00,
2013-05-20 15:46:00,71.9,64.0,29.97,North,1,2.0,2.0,75,0.00,,,0.02,weatherlink.com 1.10,2013-05-20 19:46:00,
2013-05-20 16:00:00,71.1,64.0,29.97,NNW,336,0.0,2.0,77,0.00,,,0.02,weatherlink.com 1.10,2013-05-20 20:00:00,
2013-05-20 16:15:00,70.7,63.0,29.97,NNW,335,1.0,2.0,77,0.00,,,0.02,weatherlink.com 1.10,2013-05-20 20:15:00,
2013-05-20 16:30:00,70.2,63.0,29.98,ENE,59,3.0,4.0,78,0.00,,,0.02,weatherlink.com 1.10,2013-05-20 20:30:00,
2013-05-20 16:45:00,69.5,63.0,29.98,NNW,341,1.0,2.0,80,0.00,,,0.02,weatherlink.com 1.10,2013-05-20 20:45:00,
2013-05-20 17:00:00,69.2,63.0,29.98,North,6,1.0,3.0,81,0.00,,,0.02,weatherlink.com 1.10,2013-05-20 21:00:00,
2013-05-20 17:15:00,68.6,63.0,29.99,NE,39,0.0,2.0,82,0.00,,,0.02,weatherlink.com 1.10,2013-05-20 21:15:00,
2013-05-20 17:30:00,68.5,63.0,29.98,NE,34,1.0,1.0,83,0.00,,,0.02,weatherlink.com 1.10,2013-05-20 21:30:00,
2013-05-20 17:45:00,68.8,64.0,29.98,NNW,328,0.0,3.0,84,0.00,,,0.02,weatherlink.com 1.10,2013-05-20 21:45:00,
2013-05-20 18:00:00,69.2,64.0,29.98,North,354,2.0,3.0,82,0.00,,,0.02,weatherlink.com 1.10,2013-05-20 22:00:00,
2013-05-20 18:15:00,69.7,64.0,29.97,NW,315,0.0,1.0,81,0.00,,,0.02,weatherlink.com 1.10,2013-05-20 22:15:00,
2013-05-20 18:30:00,69.6,64.0,29.97,NNW,328,0.0,2.0,81,0.00,,,0.02,weatherlink.com 1.10,2013-05-20 22:30:00,
2013-05-20 18:45:00,69.1,64.0,29.98,NW,318,1.0,2.0,83,0.00,,,0.02,weatherlink.com 1.10,2013-05-20 22:45:00,
2013-05-20 19:00:00,68.5,64.0,29.98,NNW,337,1.0,3.0,84,0.00,,,0.02,weatherlink.com 1.10,2013-05-20 23:00:00,
2013-05-20 19:15:00,67.9,64.0,29.98,NNW,337,0.0,1.0,86,0.00,,,0.02,weatherlink.com 1.10,2013-05-20 23:15:00,
2013-05-20 19:30:00,67.3,63.0,29.98,NNW,335,0.0,2.0,86,0.00,,,0.02,weatherlink.com 1.10,2013-05-20 23:30:00,
2013-05-20 19:45:00,66.9,63.0,29.98,NNW,331,0.0,1.0,87,0.00,,,0.02,weatherlink.com 1.10,2013-05-20 23:45:00,
2013-05-20 20:00:00,66.1,63.0,29.98,West,277,0.0,1.0,88,0.00,,,0.02,weatherlink.com 1.10,2013-05-21 00:00:00,
2013-05-20 20:15:00,65.0,62.0,29.98,SSW,210,0.0,2.0,90,0.00,,,0.02,weatherlink.com 1.10,2013-05-21 00:15:00,
2013-05-20 20:30:00,64.2,62.0,29.98,NW,319,0.0,1.0,91,0.00,,,0.02,weatherlink.com 1.10,2013-05-21 00:30:00,
2013-05-20 20:45:00,63.4,61.0,29.98,NW,319,0.0,1.0,92,0.00,,,0.02,weatherlink.com 1.10,2013-05-21 00:45:00,
2013-05-20 21:00:00,62.8,61.0,29.99,NW,319,0.0,1.0,93,0.00,,,0.02,weatherlink.com 1.10,2013-05-21 01:00:00,
2013-05-20 21:15:00,62.5,61.0,29.99,NW,319,0.0,1.0,94,0.00,,,0.02,weatherlink.com 1.10,2013-05-21 01:15:00,
2013-05-20 21:30:00,62.3,61.0,29.99,NW,319,0.0,1.0,94,0.00,,,0.02,weatherlink.com 1.10,2013-05-21 01:30:00,
2013-05-20 21:45:00,61.6,60.0,29.99,NW,319,0.0,1.0,94,0.00,,,0.02,weatherlink.com 1.10,2013-05-21 01:45:00,
2013-05-20 22:00:00,61.0,60.0,29.99,NW,319,0.0,0.0,95,0.00,,,0.02,weatherlink.com 1.10,2013-05-21 02:00:00,
2013-05-20 22:15:00,60.4,59.0,29.99,NW,319,0.0,0.0,95,0.00,,,0.02,weatherlink.com 1.10,2013-05-21 02:15:00,
2013-05-20 22:30:00,60.4,59.0,29.99,NW,308,1.0,2.0,96,0.00,,,0.02,weatherlink.com 1.10,2013-05-21 02:30:00,
2013-05-20 22:45:00,60.8,60.0,30.00,ENE,60,0.0,3.0,96,0.00,,,0.02,weatherlink.com 1.10,2013-05-21 02:45:00,
2013-05-20 23:00:00,60.1,59.0,30.00,ENE,59,0.0,0.0,95,0.00,,,0.02,weatherlink.com 1.10,2013-05-21 03:00:00,
2013-05-20 23:15:00,59.5,58.0,29.99,ENE,60,0.0,0.0,96,0.00,,,0.02,weatherlink.com 1.10,2013-05-21 03:15:00,
2013-05-20 23:30:00,59.1,58.0,29.99,ENE,60,0.0,0.0,96,0.00,,,0.02,weatherlink.com 1.10,2013-05-21 03:30:00,
2013-05-20 23:45:00,59.1,58.0,30.00,ENE,59,0.0,0.0,96,0.00,,,0.02,weatherlink.com 1.10,2013-05-21 03:45:00,